TimeEDT,TemperatureF,Dew PointF,Humidity,Sea Level PressureIn,VisibilityMPH,Wind Direction,Wind SpeedMPH,Gust SpeedMPH,PrecipitationIn,Events,Conditions,WindDirDegrees,DateUTC
12:52 AM,70.0,66.0,87,29.81,10.0,NE,10.4,-,N/A,,Mostly Cloudy,40,2013-07-01 04:52:00
1:38 AM,69.8,64.4,83,29.84,10.0,NE,10.4,-,N/A,,Mostly Cloudy,40,2013-07-01 05:38:00
1:52 AM,69.1,64.9,87,29.81,10.0,NE,9.2,-,N/A,,Mostly Cloudy,40,2013-07-01 05:52:00
2:52 AM,68.0,64.9,90,29.80,10.0,NE,9.2,-,N/A,,Mostly Cloudy,40,2013-07-01 06:52:00
3:52 AM,66.9,63.0,87,29.81,10.0,NNE,10.4,-,N/A,,Overcast,30,2013-07-01 07:52:00
4:52 AM,66.9,62.1,84,29.82,10.0,NNE,9.2,-,N/A,,Overcast,30,2013-07-01 08:52:00
5:52 AM,66.0,62.1,87,29.82,10.0,NNE,9.2,-,N/A,,Mostly Cloudy,20,2013-07-01 09:52:00
6:52 AM,64.9,61.0,87,29.83,10.0,NNE,8.1,-,N/A,,Mostly Cloudy,30,2013-07-01 10:52:00
7:52 AM,66.0,62.1,87,29.85,10.0,NE,9.2,-,N/A,,Mostly Cloudy,50,2013-07-01 11:52:00
8:06 AM,66.2,62.6,88,29.87,10.0,NE,6.9,-,N/A,,Overcast,40,2013-07-01 12:06:00
8:32 AM,66.2,62.6,88,29.87,10.0,ENE,5.8,-,N/A,,Overcast,60,2013-07-01 12:32:00
8:52 AM,66.9,63.0,87,29.85,10.0,NE,10.4,-,N/A,,Overcast,40,2013-07-01 12:52:00
9:48 AM,69.8,64.4,83,29.88,10.0,NE,6.9,-,0.00,,Overcast,40,2013-07-01 13:48:00
9:52 AM,69.1,64.0,84,29.86,10.0,NE,5.8,-,0.00,,Overcast,50,2013-07-01 13:52:00
10:18 AM,71.6,64.4,78,29.89,10.0,NNE,6.9,-,N/A,,Overcast,30,2013-07-01 14:18:00
10:44 AM,71.6,64.4,78,29.89,9.0,NNE,8.1,-,N/A,,Mostly Cloudy,30,2013-07-01 14:44:00
10:52 AM,71.1,64.9,81,29.86,9.0,NNE,6.9,-,N/A,,Mostly Cloudy,20,2013-07-01 14:52:00
11:52 AM,73.0,66.0,79,29.87,8.0,ENE,4.6,-,N/A,,Overcast,70,2013-07-01 15:52:00
12:52 PM,75.9,66.9,74,29.86,8.0,NW,3.5,-,0.00,,Overcast,320,2013-07-01 16:52:00
1:03 PM,77.0,66.2,69,29.89,8.0,Calm,Calm,-,N/A,,Overcast,0,2013-07-01 17:03:00
1:44 PM,77.0,66.2,69,29.88,9.0,NNE,3.5,-,N/A,,Overcast,20,2013-07-01 17:44:00
1:52 PM,75.9,66.0,71,29.86,9.0,North,3.5,-,N/A,,Mostly Cloudy,350,2013-07-01 17:52:00
2:52 PM,77.0,66.9,71,29.84,8.0,NNW,10.4,-,N/A,,Mostly Cloudy,340,2013-07-01 18:52:00
3:26 PM,78.8,66.2,65,29.86,8.0,North,9.2,-,N/A,Thunderstorm,Thunderstorm,10,2013-07-01 19:26:00
3:52 PM,71.1,64.0,78,29.85,7.0,ENE,10.4,20.7,0.00,Rain-Thunderstorm,Light Thunderstorms and Rain,60,2013-07-01 19:52:00
3:55 PM,71.6,64.4,78,29.88,1.0,ENE,17.3,20.7,0.00,Rain-Thunderstorm,Heavy Thunderstorms and Rain,70,2013-07-01 19:55:00
4:04 PM,66.2,64.4,94,29.88,1.0,ENE,16.1,29.9,0.09,Rain-Thunderstorm,Heavy Thunderstorms and Rain,70,2013-07-01 20:04:00
4:17 PM,66.2,66.2,100,29.89,2.0,North,12.7,-,0.42,Rain-Thunderstorm,Heavy Thunderstorms and Rain,360,2013-07-01 20:17:00
4:24 PM,66.2,66.2,100,29.90,4.0,North,9.2,-,0.47,Rain-Thunderstorm,Light Thunderstorms and Rain,350,2013-07-01 20:24:00
4:44 PM,69.8,69.8,100,29.89,6.0,NNE,15.0,-,0.49,,Overcast,20,2013-07-01 20:44:00
4:52 PM,68.0,66.9,96,29.86,7.0,North,13.8,-,0.49,,Overcast,360,2013-07-01 20:52:00
5:52 PM,68.0,66.0,93,29.87,10.0,NE,8.1,-,N/A,,Overcast,40,2013-07-01 21:52:00
6:52 PM,69.1,66.9,93,29.88,7.0,ENE,10.4,-,N/A,,Overcast,70,2013-07-01 22:52:00
7:52 PM,70.0,68.0,93,29.88,6.0,NNE,6.9,-,N/A,,Overcast,20,2013-07-01 23:52:00
8:09 PM,69.8,68.0,94,29.90,5.0,NNW,6.9,-,N/A,,Overcast,340,2013-07-02 00:09:00
8:15 PM,69.8,68.0,94,29.90,5.0,NNW,6.9,-,N/A,,Overcast,340,2013-07-02 00:15:00
8:52 PM,70.0,68.0,93,29.89,6.0,NNE,8.1,-,N/A,,Overcast,30,2013-07-02 00:52:00
8:58 PM,69.8,68.0,94,29.91,6.0,NNE,9.2,-,0.00,Rain-Thunderstorm,Light Thunderstorms and Rain,30,2013-07-02 00:58:00
9:26 PM,69.8,69.8,100,29.90,3.0,NE,10.4,-,0.01,Rain-Thunderstorm,Thunderstorms and Rain,40,2013-07-02 01:26:00
9:46 PM,69.8,69.8,100,29.92,2.0,East,6.9,-,0.06,Rain-Thunderstorm,Heavy Thunderstorms and Rain,80,2013-07-02 01:46:00
9:52 PM,69.1,69.1,100,29.91,2.0,ESE,6.9,-,0.10,Rain-Thunderstorm,Heavy Thunderstorms and Rain,110,2013-07-02 01:52:00
10:08 PM,66.2,66.2,100,29.92,2.5,NNE,5.8,-,0.11,Rain-Thunderstorm,Heavy Thunderstorms and Rain,20,2013-07-02 02:08:00
10:24 PM,66.2,66.2,100,29.92,3.0,NNE,18.4,27.6,0.18,Rain-Thunderstorm,Thunderstorms and Rain,30,2013-07-02 02:24:00
10:52 PM,66.9,66.0,97,29.90,6.0,NNE,15.0,20.7,0.23,Rain-Thunderstorm,Light Thunderstorms and Rain,30,2013-07-02 02:52:00
11:36 PM,68.0,68.0,100,29.93,7.0,ENE,12.7,-,0.00,,Overcast,60,2013-07-02 03:36:00
11:52 PM,66.9,66.9,100,29.91,9.0,ENE,12.7,-,0.00,,Scattered Clouds,70,2013-07-02 03:52:00